Location: Newark
(51.3318°N, 0.0053°E)
Time: 00:41:20
(UTC+00:00)

LO-87 - Pass Details

Date: 02 July 2022
Orbit: 450 x 466 km, 97.4° (Epoch: 15 August)

Event Time Altitude Azimuth Distance (km) Brightness Sun altitude
Exits shadow 22:51:51 21° 126° (SE) 1,110 ? -14.0°
Maximum altitude 22:53:44 38° 69° (ENE) 731 ? -14.1°
Drops below altitude 10° 22:57:00 10° 1° (N) 1,633 ? -14.2°
Sets 22:59:09 0° 353° (N) 2,518 ? -14.3°
